Flag for U.S.A. Weather past 2 weeks in Angels Camp, California, U.S.A.

Now
38 °F

Fog.


Feels Like: 34 °F
Forecast: 40 / 69 °F
Wind: 5 mph from Northwest

Location: Modesto City-County-Sham Field

Current Time: Jan 26, 2015 at 8:56:35 AM

Latest Report: Jan 26, 2015 at 7:53 AM


Visibility: 0 mi

Pressure: 30.07 "Hg

Humidity: 100%

Dew point: 38 °F

Location of Angels CampLocation

Historic Weather in Angels Camp — Graph

°F

Angels Camp temperature yesterday

Maximum temperature yesterday: 52 °F (at 1:53 PM)
Minimum temperature yesterday: 39 °F (at 9:53 PM)
Average temperature yesterday: 44 °F

Past Weeks' High & Low Weather Summary

 TemperatureHumidityPressure
High63 °F (Jan 12, 2:53 PM)100% (Jan 23, 8:53 AM)30.40 "Hg (Jan 23, 8:53 AM)
Low34 °F (Jan 23, 3:53 AM)58% (Jan 12, 2:53 PM)30.02 "Hg (Jan 11, 6:02 AM)
Average47 °F90%30.23 "Hg
* Reported Jan 11 6:02 AM — Jan 26 6:53 AM, Angels Camp, Weather by CustomWeather, © 2014

Note: Actual official high and low records may vary slightly from our data, if they occured in-between our weather recording intervals... More about our weather records

Advertising

Angels Camp weather history for previous 24 hours

 ConditionsComfort  
Time TempWeatherWind HumidityBarometerVisibility
6:53 AM
Jan 26
38 °FFog.7 mph97%30.06 "Hg0 mi
6:01 AM35 °FFog.No wind96%30.05 "Hg1 mi
4:53 AM37 °FFog.No wind96%30.06 "Hg0 mi
3:53 AM38 °FFog.3 mph97%30.07 "Hg0 mi
2:53 AM39 °FFog.3 mph96%30.09 "Hg0 mi
1:53 AM39 °FFog.7 mph96%30.09 "Hg1 mi
12:53 AM40 °FFog.7 mph97%30.09 "Hg1 mi
12:02 AM40 °FFog.7 mph97%30.10 "Hg1 mi
11:53 PM
Jan 25
40 °FFog.8 mph97%30.10 "Hg2 mi
10:58 PM41 °FFog.8 mph93%30.10 "Hg2 mi
9:53 PM39 °FFog.6 mph93%30.09 "Hg4 mi
8:53 PM41 °FFog.3 mph89%30.07 "Hg5 mi
7:53 PM43 °FFog.No wind89%30.07 "Hg6 mi
6:53 PM45 °FClear.5 mph86%30.06 "Hg7 mi
5:53 PM47 °FClear.3 mph83%30.05 "Hg7 mi
4:53 PM49 °FSunny.5 mph77%30.05 "Hg6 mi
3:53 PM50 °FSunny.5 mph74%30.07 "Hg6 mi
2:53 PM51 °FSunny.8 mph71%30.08 "Hg5 mi
1:53 PM52 °FSunny.3 mph72%30.09 "Hg4 mi
12:53 PM49 °FPartly sunny.No wind77%30.12 "Hg4 mi
11:53 AM46 °FFog.No wind86%30.16 "Hg3 mi
10:53 AM44 °FFog.No wind89%30.19 "Hg3 mi
10:00 AM44 °FFog.No wind93%30.19 "Hg2 mi
8:53 AM42 °FFog.No wind96%30.19 "Hg1 mi
Weather by CustomWeather, © 2014

See weather overviewHow to use our weather pages